Wetterdaten: Sonntag, 01.01.2012
Datum Zeit Temp. Auen Feucht Auen Luftdruck Regen Richtung Richtung Windben
01.01.2012 00:05 0,4 C 99 % 1088,0 hPa 0,0 mm N 0 0,0 km/h (0 Bft)
01.01.2012 00:10 0,4 C 99 % 1087,9 hPa 0,3 mm NW 314 1,1 km/h (1 Bft)
01.01.2012 00:15 0,4 C 99 % 1087,9 hPa 0,3 mm W 264 2,5 km/h (1 Bft)
01.01.2012 00:20 0,5 C 99 % 1088,2 hPa 0,3 mm W-SW 247 2,5 km/h (1 Bft)
01.01.2012 00:25 0,5 C 99 % 1088,1 hPa 0,3 mm W 267 2,5 km/h (1 Bft)
01.01.2012 00:30 0,5 C 99 % 1088,2 hPa 0,0 mm S-SW 207 3,6 km/h (1 Bft)
01.01.2012 00:35 0,5 C 99 % 1088,1 hPa 0,3 mm S 188 3,6 km/h (1 Bft)
01.01.2012 00:40 0,5 C 99 % 1088,3 hPa 0,0 mm NW 314 1,1 km/h (1 Bft)
01.01.2012 00:45 0,5 C 99 % 1088,3 hPa 0,3 mm W-SW 237 3,6 km/h (1 Bft)
01.01.2012 00:50 0,5 C 99 % 1088,4 hPa 0,0 mm SW 232 3,6 km/h (1 Bft)
01.01.2012 00:55 0,5 C 99 % 1088,5 hPa 0,0 mm W 278 2,5 km/h (1 Bft)
01.01.2012 01:00 0,5 C 99 % 1088,3 hPa 0,3 mm N 0 0,0 km/h (0 Bft)
01.01.2012 01:05 0,5 C 99 % 1088,4 hPa 0,0 mm N 0 0,0 km/h (0 Bft)
01.01.2012 01:10 0,5 C 99 % 1088,4 hPa 0,3 mm N 0 0,0 km/h (0 Bft)
01.01.2012 01:15 0,5 C 99 % 1088,4 hPa 0,3 mm N 0 0,0 km/h (0 Bft)
01.01.2012 01:20 0,5 C 99 % 1088,4 hPa 0,3 mm NW 314 1,1 km/h (1 Bft)
01.01.2012 01:25 0,5 C 99 % 1088,4 hPa 0,0 mm W 279 2,5 km/h (1 Bft)
01.01.2012 01:30 0,5 C 99 % 1088,2 hPa 0,3 mm W-SW 256 2,5 km/h (1 Bft)
01.01.2012 01:35 0,5 C 99 % 1088,2 hPa 0,3 mm S-SO 162 2,5 km/h (1 Bft)
01.01.2012 01:40 0,5 C 99 % 1088,3 hPa 0,0 mm S 184 2,5 km/h (1 Bft)
01.01.2012 01:45 0,5 C 99 % 1088,3 hPa 0,3 mm SW 214 2,5 km/h (1 Bft)
01.01.2012 01:50 0,5 C 99 % 1088,4 hPa 0,0 mm W-SW 240 2,5 km/h (1 Bft)
01.01.2012 01:55 0,5 C 99 % 1088,5 hPa 0,3 mm SW 220 2,5 km/h (1 Bft)
01.01.2012 02:00 0,6 C 99 % 1088,5 hPa 0,3 mm S-SW 205 2,5 km/h (1 Bft)
01.01.2012 02:05 0,6 C 99 % 1088,6 hPa 0,0 mm S 188 2,5 km/h (1 Bft)
01.01.2012 02:10 0,6 C 99 % 1088,3 hPa 0,6 mm S-SW 193 5,0 km/h (1 Bft)
01.01.2012 02:15 0,6 C 99 % 1088,7 hPa 0,3 mm SW 220 5,0 km/h (1 Bft)
01.01.2012 02:20 0,6 C 99 % 1088,6 hPa 0,0 mm W-SW 256 3,6 km/h (1 Bft)
01.01.2012 02:25 0,6 C 99 % 1088,8 hPa 0,3 mm W 273 2,5 km/h (1 Bft)
01.01.2012 02:30 0,6 C 99 % 1088,8 hPa 0,3 mm W-SW 255 3,6 km/h (1 Bft)
01.01.2012 02:35 0,6 C 99 % 1088,7 hPa 0,0 mm W-SW 258 3,6 km/h (1 Bft)
01.01.2012 02:40 0,7 C 99 % 1088,5 hPa 0,3 mm W 270 3,6 km/h (1 Bft)
01.01.2012 02:45 0,7 C 99 % 1088,9 hPa 0,3 mm W 267 2,5 km/h (1 Bft)
01.01.2012 02:50 0,7 C 99 % 1088,7 hPa 0,3 mm W 265 2,5 km/h (1 Bft)
01.01.2012 02:55 0,8 C 99 % 1088,7 hPa 0,3 mm W 263 2,5 km/h (1 Bft)
01.01.2012 03:00 0,8 C 99 % 1088,8 hPa 0,3 mm S 169 3,6 km/h (1 Bft)
01.01.2012 03:05 0,8 C 99 % 1088,6 hPa 0,0 mm SO 146 3,6 km/h (1 Bft)
01.01.2012 03:10 1,0 C 99 % 1088,7 hPa 0,6 mm S-SO 156 5,0 km/h (1 Bft)
01.01.2012 03:15 0,9 C 99 % 1088,6 hPa 0,3 mm S 181 5,0 km/h (1 Bft)
01.01.2012 03:20 0,8 C 99 % 1088,4 hPa 0,0 mm S-SW 202 2,5 km/h (1 Bft)
01.01.2012 03:25 0,8 C 99 % 1088,7 hPa 0,3 mm NO 45 1,1 km/h (1 Bft)
01.01.2012 03:30 0,8 C 99 % 1088,7 hPa 0,0 mm N 0 0,0 km/h (0 Bft)
01.01.2012 03:35 0,9 C 99 % 1088,8 hPa 0,3 mm N-NO 32 2,5 km/h (1 Bft)
01.01.2012 03:40 0,9 C 99 % 1088,9 hPa 0,0 mm N 7 2,5 km/h (1 Bft)
01.01.2012 03:45 0,8 C 99 % 1089,0 hPa 0,0 mm N 1 2,5 km/h (1 Bft)
01.01.2012 03:50 0,8 C 99 % 1089,1 hPa 0,3 mm SO 146 3,6 km/h (1 Bft)
01.01.2012 03:55 0,7 C 99 % 1089,2 hPa 0,0 mm O-NO 78 5,0 km/h (1 Bft)
01.01.2012 04:00 0,7 C 99 % 1089,1 hPa 0,3 mm N-NO 31 6,1 km/h (2 Bft)
01.01.2012 04:05 0,7 C 99 % 1089,1 hPa 0,0 mm NO 36 6,1 km/h (2 Bft)
01.01.2012 04:10 0,6 C 99 % 1089,2 hPa 0,0 mm NO 45 3,6 km/h (1 Bft)
01.01.2012 04:15 0,7 C 99 % 1089,4 hPa 0,3 mm N-NO 33 3,6 km/h (1 Bft)
01.01.2012 04:20 0,9 C 99 % 1089,1 hPa 0,0 mm N-NO 16 3,6 km/h (1 Bft)
01.01.2012 04:25 0,9 C 99 % 1089,3 hPa 0,3 mm S-SO 150 3,6 km/h (1 Bft)
01.01.2012 04:30 0,9 C 99 % 1089,3 hPa 0,0 mm S 181 3,6 km/h (1 Bft)
01.01.2012 04:35 1,0 C 99 % 1089,2 hPa 0,0 mm S 173 3,6 km/h (1 Bft)
01.01.2012 04:40 1,0 C 99 % 1089,2 hPa 0,3 mm S-SO 152 3,6 km/h (1 Bft)
01.01.2012 04:45 1,0 C 99 % 1089,3 hPa 0,3 mm O 100 3,6 km/h (1 Bft)
01.01.2012 04:50 1,0 C 99 % 1089,3 hPa 0,0 mm SO 126 3,6 km/h (1 Bft)
01.01.2012 04:55 1,1 C 99 % 1089,4 hPa 0,3 mm SO 139 3,6 km/h (1 Bft)
01.01.2012 05:00 1,1 C 99 % 1089,6 hPa 0,0 mm N-NO 28 6,1 km/h (2 Bft)
01.01.2012 05:05 1,1 C 99 % 1089,4 hPa 0,0 mm N 1 6,1 km/h (2 Bft)
01.01.2012 05:10 1,2 C 99 % 1089,4 hPa 0,6 mm N 1 5,0 km/h (1 Bft)
01.01.2012 05:15 1,2 C 99 % 1089,4 hPa 0,3 mm NO 52 5,0 km/h (1 Bft)
01.01.2012 05:20 1,4 C 99 % 1089,3 hPa 0,0 mm S 179 5,0 km/h (1 Bft)
01.01.2012 05:25 1,4 C 99 % 1089,4 hPa 0,3 mm N 350 2,5 km/h (1 Bft)
01.01.2012 05:30 1,3 C 99 % 1089,4 hPa 0,3 mm W-NW 287 2,5 km/h (1 Bft)
01.01.2012 05:35 1,3 C 99 % 1089,4 hPa 0,0 mm W 270 2,5 km/h (1 Bft)
01.01.2012 05:40 1,3 C 99 % 1089,7 hPa 0,3 mm W 268 2,5 km/h (1 Bft)
01.01.2012 05:45 1,3 C 99 % 1089,7 hPa 0,3 mm S-SO 161 2,5 km/h (1 Bft)
01.01.2012 05:50 1,3 C 99 % 1089,8 hPa 0,3 mm SO 143 3,6 km/h (1 Bft)
01.01.2012 05:55 1,2 C 99 % 1089,8 hPa 0,0 mm S-SW 195 3,6 km/h (1 Bft)
01.01.2012 06:00 1,3 C 99 % 1089,8 hPa 0,3 mm NW 308 6,1 km/h (2 Bft)
01.01.2012 06:05 1,3 C 99 % 1089,8 hPa 0,0 mm N 353 6,1 km/h (2 Bft)
01.01.2012 06:10 1,3 C 99 % 1089,8 hPa 0,6 mm N 1 5,0 km/h (1 Bft)
01.01.2012 06:15 1,3 C 99 % 1089,8 hPa 0,0 mm N 1 5,0 km/h (1 Bft)
01.01.2012 06:20 1,3 C 99 % 1089,9 hPa 0,3 mm S 181 1,1 km/h (1 Bft)
01.01.2012 06:25 1,3 C 99 % 1090,0 hPa 0,0 mm W-SW 251 2,5 km/h (1 Bft)
01.01.2012 06:30 1,3 C 99 % 1089,9 hPa 0,3 mm W 270 2,5 km/h (1 Bft)
01.01.2012 06:35 1,2 C 99 % 1090,1 hPa 0,0 mm W 270 2,5 km/h (1 Bft)
01.01.2012 06:40 1,3 C 99 % 1089,9 hPa 0,3 mm W-SW 251 2,5 km/h (1 Bft)
01.01.2012 06:45 1,3 C 99 % 1089,9 hPa 0,3 mm W-SW 254 2,5 km/h (1 Bft)
01.01.2012 06:50 1,3 C 99 % 1089,9 hPa 0,3 mm W 270 2,5 km/h (1 Bft)
01.01.2012 06:55 1,3 C 99 % 1089,9 hPa 0,0 mm W 270 2,5 km/h (1 Bft)
01.01.2012 07:00 1,3 C 99 % 1089,9 hPa 0,3 mm W-SW 247 3,6 km/h (1 Bft)
01.01.2012 07:05 1,3 C 99 % 1090,1 hPa 0,0 mm W-SW 253 3,6 km/h (1 Bft)
01.01.2012 07:10 1,3 C 99 % 1090,1 hPa 0,3 mm W 270 5,0 km/h (1 Bft)
01.01.2012 07:15 1,3 C 99 % 1090,0 hPa 0,3 mm W 270 5,0 km/h (1 Bft)
01.01.2012 07:20 1,4 C 99 % 1090,3 hPa 0,3 mm W 270 3,6 km/h (1 Bft)
01.01.2012 07:25 1,3 C 99 % 1090,3 hPa 0,3 mm W 270 2,5 km/h (1 Bft)
01.01.2012 07:30 1,3 C 99 % 1090,3 hPa 0,0 mm W 270 2,5 km/h (1 Bft)
01.01.2012 07:35 1,3 C 99 % 1090,5 hPa 0,3 mm NW 312 2,5 km/h (1 Bft)
01.01.2012 07:40 1,3 C 99 % 1090,3 hPa 0,3 mm W-SW 244 3,6 km/h (1 Bft)
01.01.2012 07:45 1,2 C 99 % 1090,3 hPa 0,0 mm S-SO 162 3,6 km/h (1 Bft)
01.01.2012 07:50 1,3 C 99 % 1090,2 hPa 0,0 mm SO 135 1,1 km/h (1 Bft)
01.01.2012 07:55 1,4 C 99 % 1090,5 hPa 0,3 mm SO 135 1,1 km/h (1 Bft)
01.01.2012 08:00 1,4 C 99 % 1090,5 hPa 0,3 mm N-NO 17 2,5 km/h (1 Bft)
01.01.2012 08:05 1,4 C 99 % 1090,6 hPa 0,0 mm N 1 2,5 km/h (1 Bft)
01.01.2012 08:10 1,4 C 99 % 1090,4 hPa 0,6 mm W-NW 296 5,0 km/h (1 Bft)
01.01.2012 08:15 1,4 C 99 % 1090,8 hPa 0,0 mm W-SW 248 5,0 km/h (1 Bft)
01.01.2012 08:20 1,4 C 99 % 1090,8 hPa 0,3 mm W-SW 253 5,0 km/h (1 Bft)
01.01.2012 08:25 1,4 C 99 % 1090,8 hPa 0,3 mm S-SW 194 2,5 km/h (1 Bft)
01.01.2012 08:30 1,4 C 99 % 1090,8 hPa 0,0 mm S 181 2,5 km/h (1 Bft)
01.01.2012 08:35 1,4 C 99 % 1091,0 hPa 0,3 mm S 181 2,5 km/h (1 Bft)
01.01.2012 08:40 1,5 C 99 % 1091,0 hPa 0,3 mm S 181 2,5 km/h (1 Bft)
01.01.2012 08:45 1,5 C 99 % 1091,0 hPa 0,0 mm S 181 2,5 km/h (1 Bft)
01.01.2012 08:50 1,5 C 99 % 1091,0 hPa 0,0 mm W-SW 254 3,6 km/h (1 Bft)
01.01.2012 08:55 1,5 C 99 % 1091,0 hPa 0,3 mm W-NW 298 3,6 km/h (1 Bft)
01.01.2012 09:00 1,6 C 99 % 1091,2 hPa 0,3 mm W 270 3,6 km/h (1 Bft)
01.01.2012 09:05 1,6 C 99 % 1091,1 hPa 0,0 mm W 270 3,6 km/h (1 Bft)
01.01.2012 09:10 1,6 C 99 % 1091,2 hPa 0,3 mm N 0 0,0 km/h (0 Bft)
01.01.2012 09:15 1,6 C 99 % 1091,0 hPa 0,3 mm W 270 1,1 km/h (1 Bft)
01.01.2012 09:20 1,7 C 99 % 1091,0 hPa 0,0 mm W-SW 253 2,5 km/h (1 Bft)
01.01.2012 09:25 1,7 C 99 % 1091,2 hPa 0,3 mm S-SW 192 2,5 km/h (1 Bft)
01.01.2012 09:30 1,7 C 99 % 1091,2 hPa 0,0 mm S-SW 212 2,5 km/h (1 Bft)
01.01.2012 09:35 1,7 C 99 % 1091,3 hPa 0,3 mm NW 314 1,1 km/h (1 Bft)
01.01.2012 09:40 1,8 C 99 % 1091,0 hPa 0,0 mm NW 314 1,1 km/h (1 Bft)
01.01.2012 09:45 1,8 C 99 % 1091,1 hPa 0,0 mm W 270 1,1 km/h (1 Bft)
01.01.2012 09:50 1,8 C 99 % 1091,0 hPa 0,0 mm S 185 5,0 km/h (1 Bft)
01.01.2012 09:55 1,8 C 99 % 1091,1 hPa 0,3 mm S 186 5,0 km/h (1 Bft)
01.01.2012 10:00 1,8 C 99 % 1091,1 hPa 0,0 mm W-SW 248 5,0 km/h (1 Bft)
01.01.2012 10:05 1,8 C 99 % 1091,2 hPa 0,0 mm N 354 2,5 km/h (1 Bft)
01.01.2012 10:10 1,6 C 99 % 1091,3 hPa 0,3 mm N 4 2,5 km/h (1 Bft)
01.01.2012 10:15 1,6 C 99 % 1091,4 hPa 0,0 mm NO 34 2,5 km/h (1 Bft)
01.01.2012 10:20 1,7 C 99 % 1091,4 hPa 0,0 mm S-SO 166 5,0 km/h (1 Bft)
01.01.2012 10:25 1,8 C 99 % 1091,2 hPa 0,0 mm S 177 5,0 km/h (1 Bft)
01.01.2012 10:30 2,0 C 99 % 1091,2 hPa 0,0 mm S 181 5,0 km/h (1 Bft)
01.01.2012 10:35 2,1 C 99 % 1091,3 hPa 0,3 mm W-NW 293 3,6 km/h (1 Bft)
01.01.2012 10:40 2,2 C 99 % 1091,1 hPa 0,0 mm W 264 3,6 km/h (1 Bft)
01.01.2012 10:45 2,1 C 99 % 1091,3 hPa 0,0 mm W-NW 293 3,6 km/h (1 Bft)
01.01.2012 10:50 2,2 C 99 % 1091,2 hPa 0,3 mm NW 321 3,6 km/h (1 Bft)
01.01.2012 10:55 2,3 C 99 % 1091,3 hPa 0,0 mm SW 231 2,5 km/h (1 Bft)
01.01.2012 11:00 2,3 C 99 % 1091,5 hPa 0,0 mm SW 225 2,5 km/h (1 Bft)
01.01.2012 11:05 2,3 C 99 % 1091,3 hPa 0,0 mm SW 225 1,1 km/h (1 Bft)
01.01.2012 11:10 2,5 C 99 % 1091,1 hPa 0,3 mm W-SW 237 5,0 km/h (1 Bft)
01.01.2012 11:15 2,6 C 99 % 1091,2 hPa 0,0 mm W-SW 237 5,0 km/h (1 Bft)
01.01.2012 11:20 2,6 C 99 % 1091,5 hPa 0,0 mm SW 220 3,6 km/h (1 Bft)
01.01.2012 11:25 2,5 C 99 % 1091,1 hPa 0,3 mm SW 222 3,6 km/h (1 Bft)
01.01.2012 11:30 2,7 C 99 % 1091,0 hPa 0,0 mm W 272 3,6 km/h (1 Bft)
01.01.2012 11:35 2,8 C 99 % 1091,0 hPa 0,0 mm W 270 3,6 km/h (1 Bft)
01.01.2012 11:40 3,0 C 99 % 1090,9 hPa 0,0 mm W 270 3,6 km/h (1 Bft)
01.01.2012 11:45 3,0 C 99 % 1090,8 hPa 0,3 mm W 270 2,5 km/h (1 Bft)
01.01.2012 11:50 3,2 C 99 % 1090,9 hPa 0,0 mm W 270 3,6 km/h (1 Bft)
01.01.2012 11:55 3,6 C 99 % 1090,7 hPa 0,3 mm W 261 3,6 km/h (1 Bft)
01.01.2012 12:00 4,1 C 99 % 1090,5 hPa 0,0 mm W 267 2,5 km/h (1 Bft)
01.01.2012 12:05 4,1 C 99 % 1090,5 hPa 0,0 mm N 349 1,1 km/h (1 Bft)
01.01.2012 12:10 3,8 C 99 % 1090,4 hPa 0,3 mm N 1 3,6 km/h (1 Bft)
01.01.2012 12:15 3,7 C 99 % 1090,5 hPa 0,0 mm S 181 3,6 km/h (1 Bft)
01.01.2012 12:20 3,8 C 99 % 1090,4 hPa 0,0 mm S 181 3,6 km/h (1 Bft)
01.01.2012 12:25 3,8 C 99 % 1090,3 hPa 0,0 mm N 0 0,0 km/h (0 Bft)
01.01.2012 12:30 3,7 C 99 % 1090,3 hPa 0,0 mm N 6 5,0 km/h (1 Bft)
01.01.2012 12:35 3,7 C 99 % 1090,4 hPa 0,0 mm NW 315 5,0 km/h (1 Bft)
01.01.2012 12:40 3,6 C 99 % 1090,3 hPa 0,0 mm W 263 3,6 km/h (1 Bft)
01.01.2012 12:45 3,7 C 99 % 1090,3 hPa 0,0 mm W 277 2,5 km/h (1 Bft)
01.01.2012 12:50 3,8 C 99 % 1090,4 hPa 0,3 mm N 0 0,0 km/h (0 Bft)
01.01.2012 12:55 3,9 C 99 % 1090,3 hPa 0,0 mm W 270 3,6 km/h (1 Bft)
01.01.2012 13:00 3,9 C 99 % 1090,0 hPa 0,0 mm W 263 3,6 km/h (1 Bft)
01.01.2012 13:05 3,9 C 99 % 1090,1 hPa 0,0 mm S 187 2,5 km/h (1 Bft)
01.01.2012 13:10 3,8 C 99 % 1090,2 hPa 0,0 mm S 191 3,6 km/h (1 Bft)
01.01.2012 13:15 3,7 C 99 % 1090,0 hPa 0,0 mm S-SW 195 3,6 km/h (1 Bft)
01.01.2012 13:20 3,6 C 99 % 1089,9 hPa 0,0 mm S-SW 205 3,6 km/h (1 Bft)
01.01.2012 13:25 3,7 C 99 % 1090,1 hPa 0,0 mm W-SW 247 5,0 km/h (1 Bft)
01.01.2012 13:30 3,5 C 99 % 1090,4 hPa 0,0 mm SW 227 5,0 km/h (1 Bft)
01.01.2012 13:35 3,5 C 99 % 1090,1 hPa 0,3 mm S 190 2,5 km/h (1 Bft)
01.01.2012 13:40 3,4 C 99 % 1090,2 hPa 0,0 mm S 181 1,1 km/h (1 Bft)
01.01.2012 13:45 3,3 C 99 % 1090,0 hPa 0,0 mm S 181 3,6 km/h (1 Bft)
01.01.2012 13:50 3,3 C 99 % 1090,0 hPa 0,3 mm S 181 3,6 km/h (1 Bft)
01.01.2012 13:55 3,3 C 99 % 1089,9 hPa 0,0 mm N 0 0,0 km/h (0 Bft)
01.01.2012 14:00 3,3 C 99 % 1089,9 hPa 0,0 mm S-SW 199 3,6 km/h (1 Bft)
01.01.2012 14:05 3,3 C 99 % 1090,0 hPa 0,0 mm S 184 3,6 km/h (1 Bft)
01.01.2012 14:10 3,3 C 99 % 1090,1 hPa 0,0 mm S 184 3,6 km/h (1 Bft)
01.01.2012 14:15 3,3 C 99 % 1090,0 hPa 0,0 mm S-SW 208 3,6 km/h (1 Bft)
01.01.2012 14:20 3,3 C 99 % 1089,9 hPa 0,0 mm W-SW 242 5,0 km/h (1 Bft)
01.01.2012 14:25 3,2 C 99 % 1089,9 hPa 0,0 mm SW 224 5,0 km/h (1 Bft)
01.01.2012 14:30 3,1 C 99 % 1090,1 hPa 0,0 mm SW 215 5,0 km/h (1 Bft)
01.01.2012 14:35 3,2 C 99 % 1090,1 hPa 0,0 mm W 268 2,5 km/h (1 Bft)
01.01.2012 14:40 3,2 C 99 % 1090,1 hPa 0,0 mm W 270 2,5 km/h (1 Bft)
01.01.2012 14:45 3,2 C 99 % 1090,1 hPa 0,0 mm W 270 2,5 km/h (1 Bft)
01.01.2012 14:50 3,2 C 99 % 1090,2 hPa 0,0 mm W 270 6,1 km/h (2 Bft)
01.01.2012 14:55 3,3 C 99 % 1090,2 hPa 0,0 mm W 270 6,1 km/h (2 Bft)
01.01.2012 15:00 3,2 C 99 % 1090,7 hPa 0,0 mm W 270 3,6 km/h (1 Bft)
01.01.2012 15:05 3,2 C 99 % 1090,5 hPa 0,0 mm W 270 1,1 km/h (1 Bft)
01.01.2012 15:10 3,0 C 99 % 1090,6 hPa 0,3 mm W-SW 250 2,5 km/h (1 Bft)
01.01.2012 15:15 2,9 C 99 % 1090,7 hPa 0,0 mm W 265 3,6 km/h (1 Bft)
01.01.2012 15:20 2,9 C 99 % 1090,5 hPa 0,0 mm W 270 3,6 km/h (1 Bft)
01.01.2012 15:25 3,0 C 99 % 1090,5 hPa 0,0 mm W 270 3,6 km/h (1 Bft)
01.01.2012 15:30 3,0 C 99 % 1090,4 hPa 0,0 mm W 265 3,6 km/h (1 Bft)
01.01.2012 15:35 2,9 C 99 % 1090,6 hPa 0,0 mm S-SW 208 5,0 km/h (1 Bft)
01.01.2012 15:40 2,9 C 99 % 1090,7 hPa 0,0 mm S 183 5,0 km/h (1 Bft)
01.01.2012 15:45 2,9 C 99 % 1090,6 hPa 0,0 mm W-NW 283 2,5 km/h (1 Bft)
01.01.2012 15:50 2,9 C 99 % 1090,4 hPa 0,0 mm W-SW 247 2,5 km/h (1 Bft)
01.01.2012 15:55 2,9 C 99 % 1090,5 hPa 0,0 mm SW 225 2,5 km/h (1 Bft)
01.01.2012 16:00 2,7 C 99 % 1090,6 hPa 0,0 mm S-SW 193 3,6 km/h (1 Bft)
01.01.2012 16:05 2,7 C 99 % 1090,6 hPa 0,0 mm S 181 3,6 km/h (1 Bft)
01.01.2012 16:10 2,6 C 99 % 1090,6 hPa 0,0 mm SW 225 1,1 km/h (1 Bft)
01.01.2012 16:15 2,5 C 99 % 1090,6 hPa 0,0 mm SW 225 3,6 km/h (1 Bft)
01.01.2012 16:20 2,4 C 99 % 1090,8 hPa 0,0 mm SW 225 3,6 km/h (1 Bft)
01.01.2012 16:25 2,4 C 99 % 1090,9 hPa 0,0 mm SW 225 3,6 km/h (1 Bft)
01.01.2012 16:30 2,5 C 99 % 1090,6 hPa 0,0 mm N 0 0,0 km/h (0 Bft)
01.01.2012 16:35 2,5 C 99 % 1090,6 hPa 0,0 mm SW 225 2,5 km/h (1 Bft)
01.01.2012 16:40 2,5 C 99 % 1090,7 hPa 0,0 mm SW 225 2,5 km/h (1 Bft)
01.01.2012 16:45 2,4 C 99 % 1090,5 hPa 0,0 mm SW 225 1,1 km/h (1 Bft)
01.01.2012 16:50 2,3 C 99 % 1090,8 hPa 0,0 mm SW 225 1,1 km/h (1 Bft)
01.01.2012 16:55 2,2 C 99 % 1090,7 hPa 0,0 mm SW 225 1,1 km/h (1 Bft)
01.01.2012 17:00 2,2 C 99 % 1090,7 hPa 0,0 mm SW 225 1,1 km/h (1 Bft)
01.01.2012 17:05 2,2 C 99 % 1090,6 hPa 0,0 mm N 0 0,0 km/h (0 Bft)
01.01.2012 17:10 2,2 C 99 % 1090,8 hPa 0,0 mm N 0 0,0 km/h (0 Bft)
01.01.2012 17:15 2,2 C 99 % 1090,7 hPa 0,0 mm SW 225 1,1 km/h (1 Bft)
01.01.2012 17:20 2,2 C 99 % 1090,6 hPa 0,0 mm SW 225 1,1 km/h (1 Bft)
01.01.2012 17:25 2,3 C 99 % 1090,5 hPa 0,0 mm SW 225 2,5 km/h (1 Bft)
01.01.2012 17:30 2,3 C 99 % 1090,8 hPa 0,0 mm SW 225 2,5 km/h (1 Bft)
01.01.2012 17:35 2,2 C 99 % 1090,7 hPa 0,0 mm SW 225 2,5 km/h (1 Bft)
01.01.2012 17:40 2,1 C 99 % 1090,6 hPa 0,0 mm SW 225 3,6 km/h (1 Bft)
01.01.2012 17:45 2,0 C 99 % 1090,9 hPa 0,0 mm SW 225 3,6 km/h (1 Bft)
01.01.2012 17:50 2,0 C 99 % 1090,6 hPa 0,0 mm W-SW 250 3,6 km/h (1 Bft)
01.01.2012 17:55 1,9 C 99 % 1090,7 hPa 0,0 mm W 269 3,6 km/h (1 Bft)
01.01.2012 18:00 1,8 C 99 % 1090,8 hPa 0,0 mm W 270 3,6 km/h (1 Bft)
01.01.2012 18:05 1,8 C 99 % 1090,6 hPa 0,0 mm W 270 3,6 km/h (1 Bft)
01.01.2012 18:10 1,9 C 99 % 1090,8 hPa 0,0 mm N 0 0,0 km/h (0 Bft)
01.01.2012 18:15 1,9 C 99 % 1090,7 hPa 0,0 mm W 270 1,1 km/h (1 Bft)
01.01.2012 18:20 1,9 C 99 % 1090,9 hPa 0,0 mm NW 309 5,0 km/h (1 Bft)
01.01.2012 18:25 1,9 C 99 % 1091,0 hPa 0,0 mm W-NW 296 5,0 km/h (1 Bft)
01.01.2012 18:30 1,9 C 99 % 1091,0 hPa 0,0 mm SW 226 5,0 km/h (1 Bft)
01.01.2012 18:35 1,8 C 99 % 1091,1 hPa 0,0 mm SW 225 2,5 km/h (1 Bft)
01.01.2012 18:40 1,9 C 99 % 1091,0 hPa 0,0 mm SW 225 3,6 km/h (1 Bft)
01.01.2012 18:45 1,8 C 99 % 1091,0 hPa 0,0 mm SW 225 3,6 km/h (1 Bft)
01.01.2012 18:50 1,9 C 99 % 1091,1 hPa 0,0 mm W-SW 242 5,0 km/h (1 Bft)
01.01.2012 18:55 1,9 C 99 % 1091,2 hPa 0,0 mm W-SW 258 5,0 km/h (1 Bft)
01.01.2012 19:00 1,8 C 99 % 1091,3 hPa 0,0 mm SW 225 1,1 km/h (1 Bft)
01.01.2012 19:05 1,8 C 99 % 1091,2 hPa 0,0 mm SW 225 2,5 km/h (1 Bft)
01.01.2012 19:10 1,7 C 99 % 1091,3 hPa 0,0 mm SW 225 3,6 km/h (1 Bft)
01.01.2012 19:15 1,7 C 99 % 1091,2 hPa 0,0 mm SW 225 3,6 km/h (1 Bft)
01.01.2012 19:20 1,7 C 99 % 1091,5 hPa 0,0 mm SW 225 3,6 km/h (1 Bft)
01.01.2012 19:25 1,6 C 99 % 1091,3 hPa 0,0 mm SW 225 1,1 km/h (1 Bft)
01.01.2012 19:30 1,5 C 99 % 1091,2 hPa 0,0 mm SW 225 3,6 km/h (1 Bft)
01.01.2012 19:35 1,5 C 99 % 1091,3 hPa 0,0 mm SW 225 3,6 km/h (1 Bft)
01.01.2012 19:40 1,5 C 99 % 1091,3 hPa 0,0 mm SW 225 5,0 km/h (1 Bft)
01.01.2012 19:45 1,5 C 99 % 1091,4 hPa 0,0 mm W-SW 237 6,1 km/h (2 Bft)
01.01.2012 19:50 1,5 C 99 % 1091,3 hPa 0,0 mm W-SW 237 6,1 km/h (2 Bft)
01.01.2012 19:55 1,4 C 99 % 1091,3 hPa 0,0 mm SW 230 3,6 km/h (1 Bft)
01.01.2012 20:00 1,4 C 99 % 1091,2 hPa 0,0 mm W 267 6,1 km/h (2 Bft)
01.01.2012 20:05 1,4 C 99 % 1091,6 hPa 0,0 mm W-SW 241 6,1 km/h (2 Bft)
01.01.2012 20:10 1,3 C 99 % 1091,5 hPa 0,0 mm SW 225 3,6 km/h (1 Bft)
01.01.2012 20:15 1,3 C 99 % 1091,4 hPa 0,0 mm SW 225 3,6 km/h (1 Bft)
01.01.2012 20:20 1,3 C 99 % 1091,5 hPa 0,0 mm SW 225 3,6 km/h (1 Bft)
01.01.2012 20:25 1,2 C 99 % 1091,5 hPa 0,0 mm SW 225 3,6 km/h (1 Bft)
01.01.2012 20:30 1,2 C 99 % 1091,4 hPa 0,0 mm SW 225 3,6 km/h (1 Bft)
01.01.2012 20:35 1,2 C 99 % 1091,5 hPa 0,0 mm SW 225 3,6 km/h (1 Bft)
01.01.2012 20:40 1,1 C 99 % 1091,5 hPa 0,0 mm SW 225 2,5 km/h (1 Bft)
01.01.2012 20:45 1,0 C 99 % 1091,6 hPa 0,0 mm SW 225 3,6 km/h (1 Bft)
01.01.2012 20:50 1,0 C 99 % 1091,7 hPa 0,0 mm W-SW 243 6,1 km/h (2 Bft)
01.01.2012 20:55 1,0 C 99 % 1091,6 hPa 0,0 mm W 263 6,1 km/h (2 Bft)
01.01.2012 21:00 1,0 C 99 % 1091,7 hPa 0,0 mm W 270 6,1 km/h (2 Bft)
01.01.2012 21:05 1,0 C 99 % 1091,5 hPa 0,0 mm W 270 1,1 km/h (1 Bft)
01.01.2012 21:10 0,9 C 99 % 1091,5 hPa 0,0 mm W 270 1,1 km/h (1 Bft)
01.01.2012 21:15 1,0 C 99 % 1091,3 hPa 0,0 mm W 270 5,0 km/h (1 Bft)
01.01.2012 21:20 1,1 C 99 % 1091,2 hPa 0,0 mm W 270 6,1 km/h (2 Bft)
01.01.2012 21:25 1,0 C 99 % 1091,1 hPa 0,0 mm W 270 6,1 km/h (2 Bft)
01.01.2012 21:30 0,9 C 99 % 1091,0 hPa 0,0 mm W 270 2,5 km/h (1 Bft)
01.01.2012 21:35 0,8 C 99 % 1091,0 hPa 0,0 mm W 270 2,5 km/h (1 Bft)
01.01.2012 21:40 0,5 C 99 % 1091,0 hPa 0,0 mm W 270 3,6 km/h (1 Bft)
01.01.2012 21:45 0,5 C 99 % 1091,2 hPa 0,0 mm W 270 3,6 km/h (1 Bft)
01.01.2012 21:50 0,6 C 99 % 1090,9 hPa 0,0 mm W 270 3,6 km/h (1 Bft)
01.01.2012 21:55 0,7 C 99 % 1090,9 hPa 0,0 mm W 270 2,5 km/h (1 Bft)
01.01.2012 22:00 0,7 C 99 % 1090,9 hPa 0,0 mm W-SW 243 3,6 km/h (1 Bft)
01.01.2012 22:05 0,7 C 99 % 1090,6 hPa 0,0 mm SW 236 3,6 km/h (1 Bft)
01.01.2012 22:10 0,8 C 99 % 1090,8 hPa 0,0 mm SW 225 3,6 km/h (1 Bft)
01.01.2012 22:15 0,8 C 99 % 1090,6 hPa 0,0 mm SW 225 3,6 km/h (1 Bft)
01.01.2012 22:20 0,8 C 99 % 1090,6 hPa 0,0 mm SW 225 3,6 km/h (1 Bft)
01.01.2012 22:25 0,8 C 99 % 1090,8 hPa 0,0 mm SW 225 2,5 km/h (1 Bft)
01.01.2012 22:30 0,8 C 99 % 1090,6 hPa 0,0 mm SW 225 2,5 km/h (1 Bft)
01.01.2012 22:35 0,9 C 99 % 1090,5 hPa 0,0 mm SW 225 2,5 km/h (1 Bft)
01.01.2012 22:40 1,0 C 99 % 1090,6 hPa 0,0 mm W-SW 248 5,0 km/h (1 Bft)
01.01.2012 22:45 1,0 C 99 % 1090,4 hPa 0,0 mm W-SW 251 5,0 km/h (1 Bft)
01.01.2012 22:50 1,0 C 99 % 1090,5 hPa 0,0 mm W-SW 250 3,6 km/h (1 Bft)
01.01.2012 22:55 1,0 C 99 % 1090,3 hPa 0,0 mm N 0 0,0 km/h (0 Bft)
01.01.2012 23:00 0,9 C 99 % 1090,2 hPa 0,0 mm SW 225 2,5 km/h (1 Bft)
01.01.2012 23:05 0,9 C 99 % 1090,1 hPa 0,0 mm SW 225 2,5 km/h (1 Bft)
01.01.2012 23:10 0,8 C 99 % 1090,0 hPa 0,0 mm SW 225 1,1 km/h (1 Bft)
01.01.2012 23:15 0,8 C 99 % 1090,0 hPa 0,0 mm SW 225 3,6 km/h (1 Bft)
01.01.2012 23:20 0,6 C 99 % 1090,0 hPa 0,0 mm W-SW 242 3,6 km/h (1 Bft)
01.01.2012 23:25 0,5 C 99 % 1090,0 hPa 0,0 mm W-SW 254 3,6 km/h (1 Bft)
01.01.2012 23:30 0,5 C 99 % 1089,7 hPa 0,0 mm W-SW 245 6,1 km/h (2 Bft)
01.01.2012 23:35 0,4 C 99 % 1089,8 hPa 0,0 mm W-SW 245 6,1 km/h (2 Bft)
01.01.2012 23:40 0,3 C 99 % 1089,8 hPa 0,0 mm W 261 5,0 km/h (1 Bft)
01.01.2012 23:45 0,3 C 99 % 1089,6 hPa 0,0 mm W 270 3,6 km/h (1 Bft)
01.01.2012 23:50 0,3 C 99 % 1089,6 hPa 0,0 mm W 264 3,6 km/h (1 Bft)
01.01.2012 23:55 0,3 C 99 % 1089,8 hPa 0,0 mm W 263 3,6 km/h (1 Bft)
_ Min-Zeit 23:40 00:05 00:10 - - - 00:05
Minimum _ 0,3 C 99 % 1087,9 hPa - - - 0,0 km/h (0 Bft)
_ Max-Zeit 12:00 00:05 20:50 02:10 - - 04:00
Maximum _ 4,1 C 99 % 1091,7 hPa 0,6 mm - - 6,1 km/h
N-NO (2 Bft)
Durchschnitt _ 1,7 C 99 % 1090,2 hPa #26,1 mm W - 3,2 km/h (1 Bft)